Molokai, HI

5:07 PM HST on January 17, 2018 (GMT -1000)
Molokai

Weather History for PHMK - November, 2012

Change the Weather History Date:

Wednesday, November 28, 2012

  Actual Average Record
Temperature  
Mean Temperature 72 °F -  
Max Temperature 81 °F 80 °F 89 °F (1986)
Min Temperature 62 °F 66 °F 57 °F (1985)
Cooling Degree Days 8    
Growing Degree Days 22 (Base 50)    
Moisture  
Dew Point 58 °F    
Average Humidity 62    
Maximum Humidity 80    
Minimum Humidity 41    
Precipitation  
Precipitation 0.00 in - - ()
Sea Level Pressure  
Sea Level Pressure 30.05 in    
Wind  
Wind Speed 8 mph (East)    
Max Wind Speed 13 mph    
Max Gust Speed 20 mph    
Visibility 10 miles    
Events      
Averages and records for this station are not official NWS values.
T = Trace of Precipitation, MM = Missing Value Source: NWS Daily Summary

Daily Weather History Graph

Daily Weather History Graph

Search for Another Location

Airport or City:

Trip Planner

Search our weather history database for the weather conditions in past years. The results will help you decide how hot, cold, wet, or windy it might be!

Date:

Astronomy

Nov. 28, 2012 Rise Set
Actual Time 6:47 AM HST 5:45 PM HST
Civil Twilight 6:23 AM HST 6:09 PM HST
Nautical Twilight 5:56 AM HST 6:36 PM HST
Astronomical Twilight 5:29 AM HST 7:03 PM HST
Moon 6:09 PM HST (11/28) 6:54 AM HST (11/28)
Length of Visible Light 11h 45m
Length of Day
10h 57m
Full, 100% of the Moon is Illuminated
Nov 28
Full
Dec 6
Last Quarter
Dec 12
New
Dec 19
First Quarter
Dec 28
Full

Hourly Weather History & Observations

Time (HST) Temp. Heat Index Dew Point Humidity Pressure Visibility Wind Dir Wind Speed Gust Speed Precip Events Conditions
12:54 AM 70.0 °F - 57.9 °F 65% 30.09 in 10.0 mi NE 11.5 mph 19.6 mph N/A   Clear
1:54 AM 70.0 °F - 59.0 °F 68% 30.07 in 10.0 mi NE 6.9 mph - N/A   Clear
2:54 AM 70.0 °F - 57.9 °F 65% 30.05 in 10.0 mi NE 9.2 mph - N/A   Clear
3:54 AM 68.0 °F - 57.0 °F 68% 30.04 in 10.0 mi ENE 8.1 mph - N/A   Clear
4:54 AM 68.0 °F - 57.0 °F 68% 30.04 in 10.0 mi ENE 6.9 mph - N/A   Clear
5:54 AM 69.1 °F - 57.9 °F 68% 30.05 in 10.0 mi NE 5.8 mph - N/A   Clear
6:54 AM 69.1 °F - 57.9 °F 68% 30.06 in 10.0 mi NNE 6.9 mph - N/A   Clear
7:54 AM 72.0 °F - 59.0 °F 64% 30.09 in 10.0 mi ENE 6.9 mph - N/A   Clear
8:54 AM 75.9 °F - 57.9 °F 54% 30.09 in 10.0 mi ENE 9.2 mph - N/A   Clear
9:54 AM 77.0 °F - 57.0 °F 50% 30.09 in 10.0 mi South 8.1 mph - N/A   Partly Cloudy
10:54 AM 81.0 °F 81.3 °F 59.0 °F 47% 30.08 in 7.0 mi ENE 11.5 mph - N/A   Scattered Clouds
11:54 AM 81.0 °F 80.7 °F 55.0 °F 41% 30.06 in 10.0 mi South 5.8 mph - N/A   Scattered Clouds
12:54 PM 79.0 °F - 55.9 °F 45% 30.03 in 10.0 mi South 11.5 mph 17.3 mph N/A   Scattered Clouds
1:54 PM 79.0 °F - 57.0 °F 47% 30.01 in 10.0 mi South 6.9 mph - N/A   Clear
2:54 PM 79.0 °F - 57.9 °F 48% 30.00 in 10.0 mi South 12.7 mph - N/A   Scattered Clouds
3:54 PM 78.1 °F - 59.0 °F 52% 30.00 in 10.0 mi South 6.9 mph - N/A   Partly Cloudy
4:54 PM 75.9 °F - 60.1 °F 58% 30.00 in 10.0 mi SSE 5.8 mph - N/A   Partly Cloudy
5:54 PM 73.9 °F - 60.1 °F 62% 30.02 in 10.0 mi South 3.5 mph - N/A   Clear
6:54 PM 68.0 °F - 57.9 °F 70% 30.05 in 10.0 mi Calm Calm - N/A   Clear
7:54 PM 68.0 °F - 59.0 °F 73% 30.07 in 10.0 mi NW 3.5 mph - N/A   Clear
8:54 PM 66.0 °F - 57.9 °F 75% 30.09 in 10.0 mi NW 3.5 mph - N/A   Clear
9:54 PM 66.0 °F - 57.9 °F 75% 30.08 in 10.0 mi Calm Calm - N/A   Clear
10:54 PM 64.0 °F - 57.9 °F 80% 30.08 in 10.0 mi Calm Calm - N/A   Clear
11:54 PM 62.1 °F - 55.9 °F 80% 30.08 in 10.0 mi Calm Calm - N/A   Clear